Theta_e
307 307 307 307 306 306 305 305 305 305 305 305 305 306 306 306 306 307 307 307 307 306 306 306 306 306 306 308 309 311 313 314 315 314 312 312 314 316 315 314 317 321 321 321 322 323 324 324 324 325 326 326 327 327 327 327 328 330 331 332 333 331 330 330 330 330 331 330 327 323 319 316 314 311 308 308 304 302 300 297 296 295 293 292 291 291 291 291
307 307 306 306 306 305 305 304 304 304 305 305 305 305 305 305 306 306 306 307 306 306 305 305 305 305 306 308 310 311 312 313 313 312 311 313 315 314 313 313 316 321 320 321 323 322 322 322 322 324 325 327 327 326 328 327 328 330 330 330 332 331 327 326 327 329 329 327 324 319 317 317 315 314 311 309 307 305 304 302 299 297 294 292 291 290 290 290
306 306 306 305 305 304 304 304 304 304 304 304 305 304 305 305 305 305 306 306 306 305 305 305 305 306 307 309 310 311 312 313 313 311 311 313 314 313 313 313 315 319 319 320 322 321 321 320 322 323 323 326 327 326 328 327 328 329 328 329 329 327 326 325 327 328 326 322 320 316 314 312 310 312 311 306 304 303 301 300 300 298 294 292 290 289 289 289
306 305 305 304 304 303 303 303 303 303 304 304 304 304 304 304 305 305 306 305 305 305 304 305 306 307 308 309 311 311 311 314 313 310 311 313 313 311 312 313 314 317 318 319 321 320 320 319 320 322 323 325 325 326 327 327 327 327 327 328 326 325 326 326 327 326 323 320 317 315 313 310 305 306 307 308 309 304 297 295 295 294 291 290 289 289 288 288
305 305 304 304 303 302 302 303 303 303 303 304 304 304 304 304 305 305 305 305 304 304 304 305 307 307 308 309 310 310 312 315 312 309 311 312 312 311 311 314 315 316 318 319 319 319 318 319 319 321 322 324 325 326 326 325 325 326 326 325 324 325 326 326 326 325 322 319 317 315 313 309 303 300 301 307 311 302 295 291 290 290 289 288 288 288 287 287
305 304 304 303 302 302 302 302 302 302 303 303 304 304 304 304 304 304 305 305 304 303 304 306 307 307 309 310 310 311 313 314 310 308 309 310 311 311 311 314 314 315 317 317 317 317 317 318 319 320 321 321 323 323 324 323 324 326 324 323 323 324 325 325 325 323 321 319 316 313 309 304 301 300 295 297 299 294 291 290 289 288 287 287 287 287 287 287
304 304 303 302 302 301 302 302 302 302 302 303 304 304 303 304 304 304 304 304 304 304 305 306 307 308 309 309 310 311 312 309 307 307 308 309 310 310 310 313 314 314 315 315 315 315 316 317 318 319 320 319 319 320 322 323 323 325 324 322 323 324 324 322 320 318 316 314 312 309 307 304 305 303 295 292 292 290 290 289 288 288 287 287 286 286 286 286
304 304 303 302 301 301 301 302 302 302 302 302 303 303 303 303 303 303 303 303 304 305 306 307 307 307 308 310 312 312 309 307 306 306 307 308 309 309 310 312 313 314 314 314 314 314 315 316 317 318 318 318 317 318 321 322 323 324 324 323 322 323 322 319 316 314 312 310 308 306 305 303 302 300 295 292 291 289 289 289 288 288 287 287 286 286 285 285
304 303 302 301 301 301 301 301 301 302 302 302 302 303 304 305 304 303 303 303 305 306 307 307 307 307 308 310 312 312 308 306 305 305 306 307 308 308 310 312 313 314 314 314 314 314 315 315 315 317 318 318 318 319 320 321 322 321 322 322 322 322 320 317 315 313 311 309 307 304 302 300 300 300 296 292 291 290 289 289 289 288 287 286 286 285 285 285
303 302 302 301 300 301 301 301 302 302 302 303 303 304 305 305 305 304 303 304 305 307 307 307 307 307 308 309 312 312 306 304 305 305 305 305 306 307 309 311 312 313 313 313 314 314 314 314 315 317 318 318 319 319 320 320 320 320 321 322 321 322 320 317 315 313 312 310 308 306 304 303 304 306 301 293 291 291 290 289 288 288 287 286 286 285 285 284
302 302 301 300 300 300 301 302 302 302 303 304 304 305 306 306 306 306 305 306 306 307 307 307 307 307 309 309 310 309 304 304 305 304 305 305 307 307 308 310 311 313 313 313 313 314 315 315 315 317 317 317 318 318 319 319 319 320 320 321 321 322 321 318 315 315 314 311 308 307 307 306 305 305 299 293 292 291 290 289 288 288 286 286 285 285 284 284
302 301 300 300 300 300 301 302 302 303 303 305 306 306 306 306 306 306 307 306 306 307 306 306 306 307 309 308 306 305 304 305 305 304 305 305 306 308 309 310 311 312 312 312 313 315 315 314 315 316 316 316 316 316 318 319 318 319 319 321 321 321 321 319 317 317 315 312 309 309 313 311 304 300 296 293 292 291 290 290 289 288 287 286 285 285 284 284
301 301 300 300 300 301 302 302 302 304 305 307 307 307 306 306 306 306 307 306 306 307 306 306 306 308 309 307 305 304 304 305 305 305 305 305 307 309 310 311 311 311 312 313 314 315 314 313 315 316 316 316 316 315 316 317 317 318 318 320 321 321 321 320 318 318 316 313 311 314 322 314 301 297 295 293 292 291 291 290 289 288 287 286 286 285 285 284
300 300 300 300 300 301 302 303 303 305 307 308 308 307 306 306 306 307 307 306 306 306 305 304 305 308 308 306 305 304 304 305 305 304 305 305 307 309 311 311 311 311 312 313 314 314 314 313 313 314 315 315 316 315 315 316 316 316 318 319 320 321 320 319 319 320 319 316 312 317 324 312 299 297 295 293 293 292 291 290 289 288 287 286 286 285 284 284
299 300 300 300 301 302 302 303 304 306 307 308 308 308 307 307 307 306 306 306 305 304 304 305 307 308 307 305 305 304 305 305 304 304 304 305 307 309 311 311 311 311 311 313 313 313 314 313 312 314 315 314 316 316 316 317 316 316 318 318 318 318 317 318 320 320 320 317 314 319 321 309 300 297 295 294 294 294 292 290 288 288 287 287 286 285 284 284
300 299 299 300 301 302 303 304 305 306 307 306 307 307 307 306 305 305 305 304 303 304 307 309 309 308 308 306 305 305 305 304 304 304 304 304 306 308 310 311 311 311 311 312 312 313 313 313 313 313 314 314 316 317 316 316 317 316 316 317 318 316 315 319 320 319 319 317 317 320 317 307 301 298 296 295 296 295 292 289 289 287 287 286 286 285 285 284
299 297 297 300 302 302 303 305 305 306 306 306 306 306 305 304 304 304 303 303 303 304 306 307 306 307 307 305 305 305 304 304 303 304 304 304 306 308 309 310 311 311 311 312 312 313 313 313 313 313 313 314 316 316 317 316 316 317 316 316 317 315 317 320 320 318 319 318 319 320 313 305 301 298 296 296 297 296 293 290 289 288 287 286 285 285 284 283
297 294 297 300 301 303 304 305 305 306 306 306 305 304 303 303 303 303 303 303 303 303 305 305 305 308 308 305 305 305 303 304 304 304 304 304 305 307 309 310 311 311 312 312 312 313 313 313 313 313 313 314 315 316 316 316 315 316 316 316 316 315 317 319 319 319 318 319 320 318 310 302 300 298 296 296 296 296 293 291 289 288 287 286 285 285 283 283
295 293 298 300 301 303 304 304 306 306 306 305 304 303 303 304 303 303 304 304 304 305 307 306 306 309 308 305 304 303 303 304 304 304 303 303 305 308 309 310 311 312 312 312 312 313 313 313 312 313 314 314 314 314 315 314 313 314 314 314 315 315 316 318 320 318 318 319 319 317 310 301 299 298 296 295 295 295 293 290 288 287 287 286 285 284 283 282
293 293 299 300 301 303 303 305 306 304 304 303 302 302 304 306 305 302 302 302 303 304 305 304 304 305 305 303 302 302 303 304 305 304 302 302 305 307 309 310 311 312 312 312 312 311 312 313 312 313 314 313 312 313 313 312 311 313 314 315 315 314 316 317 319 318 318 319 317 313 307 301 298 298 295 293 293 293 292 289 288 288 287 286 285 284 283 282
291 294 299 301 302 303 304 305 305 303 303 303 303 304 305 305 306 303 301 302 302 302 303 302 302 302 301 301 300 300 303 305 305 303 301 303 305 308 309 310 312 312 312 312 311 310 311 313 313 311 311 311 311 311 312 312 312 312 312 314 315 315 316 314 316 316 317 319 313 307 305 301 298 296 295 293 293 292 291 290 289 288 286 286 284 283 282 281
290 294 299 302 302 304 304 304 302 300 301 302 303 304 303 301 302 303 302 302 302 302 303 302 302 301 300 301 299 300 304 305 305 303 300 303 307 308 309 310 312 312 312 312 311 310 311 312 310 307 308 310 310 311 312 313 313 312 311 311 312 314 315 313 313 313 315 318 312 307 308 305 298 296 294 292 292 292 291 291 290 288 286 285 284 283 282 281
290 293 298 302 303 304 303 301 300 300 301 303 304 302 300 299 300 301 303 304 301 301 302 302 302 301 301 301 299 301 303 303 303 302 299 302 307 308 309 311 311 311 311 311 310 310 311 309 305 304 306 309 309 310 311 311 311 312 311 309 309 312 315 313 312 312 313 315 310 308 311 307 298 295 293 291 292 292 290 289 289 287 286 284 284 283 281 280
290 293 298 302 302 303 301 300 301 300 301 302 301 299 298 299 299 299 303 305 302 300 300 300 301 300 299 299 299 301 302 300 301 301 298 301 305 307 308 309 309 309 309 310 311 311 309 304 302 304 306 307 309 309 310 310 310 311 311 310 310 312 314 314 312 311 311 311 310 309 312 310 301 297 295 292 292 290 287 286 286 285 286 285 284 283 282 281
290 292 297 301 302 302 300 301 302 301 301 300 298 298 298 298 297 297 303 306 304 302 301 301 300 298 297 298 299 301 302 300 299 298 298 299 302 306 307 306 308 309 309 310 310 309 306 301 302 305 306 306 308 309 309 310 309 310 311 310 310 312 313 313 311 311 310 311 311 310 313 313 304 300 298 293 291 289 287 286 285 284 284 284 283 282 282 281
290 291 295 300 301 301 300 302 301 301 303 301 298 298 297 298 297 297 303 307 306 303 302 302 301 298 297 299 299 301 303 302 298 298 299 298 299 304 307 306 306 308 309 308 306 306 303 301 302 305 306 307 307 308 309 310 309 309 308 308 310 312 311 312 311 310 309 311 312 310 312 312 307 303 299 293 290 289 287 286 285 284 284 283 282 282 281 281
290 290 294 299 301 300 301 302 301 301 303 300 298 298 297 296 296 299 305 308 306 303 302 302 300 298 298 298 299 301 304 302 299 299 298 298 299 303 306 306 305 306 306 305 305 304 302 301 303 304 305 307 307 307 305 306 309 308 306 308 311 311 310 310 310 309 309 310 311 310 310 311 311 306 297 292 291 291 289 287 286 285 284 283 282 282 281 280
290 289 292 297 300 300 299 300 301 301 301 299 298 297 297 296 297 302 307 306 303 301 301 300 298 297 298 298 299 300 301 300 301 301 297 297 300 303 305 306 305 305 304 304 304 302 300 302 302 302 305 306 304 302 300 304 308 306 305 307 309 310 310 309 309 308 307 309 310 311 311 311 312 305 294 292 294 293 292 289 288 287 285 283 283 281 281 280
290 290 291 295 299 300 298 298 300 301 299 298 298 298 297 297 299 303 305 302 300 299 300 299 297 297 299 299 299 299 298 298 300 300 298 299 301 302 304 305 304 303 302 303 303 300 298 298 298 300 303 302 299 298 299 302 305 304 305 305 306 308 309 309 309 308 308 309 308 310 311 311 311 305 295 295 297 296 295 292 290 288 285 284 283 281 280 280
290 291 291 293 297 299 297 296 298 299 297 297 298 297 297 300 303 305 303 300 300 300 299 299 298 298 299 300 299 298 298 297 297 298 300 302 301 301 302 303 303 302 301 302 301 298 296 296 296 297 298 297 296 297 299 301 302 303 305 305 305 306 306 307 307 307 308 308 308 309 310 310 310 308 301 298 299 298 298 296 292 289 286 284 282 281 280 279
290 291 291 292 296 297 296 298 298 297 297 297 298 297 300 304 304 304 302 299 301 300 298 297 297 297 298 300 299 297 297 296 296 298 301 302 302 302 302 303 303 303 302 303 301 297 296 298 298 296 294 295 296 298 299 300 301 303 305 305 305 306 306 306 307 308 307 308 308 308 310 310 310 309 304 300 299 300 300 298 294 290 287 284 282 281 280 279
289 291 291 292 294 294 296 299 297 296 297 297 298 300 304 304 302 302 300 298 301 300 297 296 296 296 297 298 298 296 296 297 295 297 300 301 303 303 302 303 303 304 305 306 303 300 299 298 298 296 294 295 298 300 301 301 301 302 305 306 306 307 308 307 308 308 307 307 305 305 308 310 309 308 305 300 297 297 298 298 295 290 287 284 282 281 280 279
289 290 290 291 291 292 294 295 295 295 297 297 299 302 303 302 302 303 299 297 300 298 296 295 294 294 296 298 297 294 295 297 295 296 297 299 302 302 300 300 301 304 306 305 304 304 302 299 297 298 297 295 297 300 302 303 302 302 304 306 307 307 308 308 308 307 308 307 302 302 307 308 309 306 299 295 293 292 293 296 295 290 286 284 282 280 279 279
289 289 290 290 291 291 292 292 293 296 297 298 300 302 300 299 301 301 299 297 296 295 294 294 293 294 296 298 296 294 296 297 294 295 297 298 302 302 301 300 299 301 303 304 305 305 306 304 299 298 297 295 295 296 296 298 300 301 303 305 307 307 307 308 308 308 309 307 302 302 306 309 309 301 292 289 289 289 291 292 291 288 285 283 281 280 279 279
289 290 291 291 292 292 292 292 294 296 298 299 302 302 299 298 299 299 299 297 295 294 294 294 294 296 298 296 294 293 295 296 294 294 297 299 301 301 301 300 297 298 302 305 305 304 307 306 297 293 293 292 293 293 293 296 301 303 302 304 306 305 305 307 307 306 306 306 304 304 306 306 301 292 287 288 289 289 290 290 288 286 284 282 281 279 279 279
290 290 292 292 292 293 293 293 295 297 299 300 303 303 300 299 298 299 299 297 295 294 294 294 296 298 299 297 295 293 293 294 294 294 298 299 299 299 299 296 294 296 299 303 305 303 306 304 293 291 293 290 290 291 292 295 300 304 304 303 302 300 302 305 306 304 303 305 305 305 305 303 299 294 288 288 289 288 288 288 286 285 283 281 280 280 279 279
292 292 293 292 291 293 294 294 296 297 299 301 303 302 300 297 295 297 297 295 296 295 294 297 298 298 299 299 297 294 292 293 294 295 298 299 298 299 297 292 290 291 292 296 302 301 303 302 293 291 294 290 289 291 292 292 295 300 302 300 299 301 302 303 305 305 305 306 306 305 304 303 303 299 290 287 289 288 287 288 286 284 282 282 281 280 279 279
293 292 294 292 290 293 295 295 296 298 299 301 303 302 300 296 293 294 294 294 295 296 295 297 297 296 298 299 298 294 292 294 295 295 297 298 297 296 295 292 289 288 287 290 298 299 299 301 296 291 292 291 289 291 295 294 293 296 298 296 299 303 304 303 304 305 306 306 305 305 304 303 303 302 296 291 290 288 287 287 286 284 282 282 281 280 280 279
293 293 296 292 289 293 295 296 297 298 300 300 302 302 297 294 292 291 292 292 295 295 295 297 297 296 295 297 298 294 292 295 296 295 296 298 297 292 291 291 288 286 286 288 295 298 298 301 299 292 291 292 292 294 298 298 294 294 296 296 299 301 302 304 303 304 306 305 305 305 304 304 302 300 298 295 291 289 288 286 285 284 283 283 282 281 280 279
293 295 297 290 289 294 296 296 298 300 301 300 301 300 294 292 292 289 289 291 293 293 295 296 297 296 295 294 295 294 293 294 295 296 296 295 295 292 288 288 288 286 286 288 292 295 297 301 300 294 291 293 295 295 296 297 296 297 297 298 299 299 300 302 301 302 304 304 305 305 304 305 300 293 292 294 293 290 288 287 286 285 283 284 283 281 281 280
293 296 296 289 290 295 295 298 300 299 300 300 299 297 293 292 291 289 289 290 290 291 292 293 294 295 294 293 293 293 293 294 293 295 296 294 294 294 287 283 285 287 288 290 292 294 296 299 299 296 294 296 295 289 286 287 289 293 296 298 299 299 300 301 300 302 302 302 303 303 303 304 297 290 289 291 292 292 289 287 287 286 284 284 283 282 281 280
294 297 295 289 291 295 296 299 298 296 299 298 294 293 292 291 290 288 289 289 289 289 290 290 292 293 293 293 293 293 293 294 293 293 295 293 292 291 285 279 280 284 288 291 292 291 293 296 297 298 295 292 288 284 283 284 285 287 290 293 295 297 300 301 301 302 301 301 301 301 302 302 293 287 288 289 289 291 290 289 288 287 285 285 284 282 281 281
295 296 292 289 291 294 297 300 297 296 297 292 287 287 289 289 289 288 288 289 289 289 289 290 290 291 292 291 292 293 293 294 294 293 293 292 289 284 279 278 280 283 287 291 292 290 292 295 296 297 294 289 285 283 283 284 285 288 289 289 291 295 298 298 298 298 298 300 300 299 301 301 293 286 287 287 287 289 290 290 289 287 285 285 284 283 282 281
295 294 291 290 291 293 297 299 298 297 295 289 287 287 286 286 287 287 288 289 289 289 289 289 288 289 289 288 290 293 292 293 294 292 290 291 287 279 277 278 280 283 287 290 291 290 292 296 297 297 296 293 290 289 289 287 287 289 291 289 290 292 294 294 295 295 296 298 300 299 300 300 292 286 286 287 286 288 289 289 289 287 285 285 284 283 282 281
295 294 293 291 291 292 295 295 296 298 295 290 290 289 287 286 285 284 286 288 286 287 289 288 286 286 286 286 288 289 288 290 292 290 288 288 284 278 278 279 279 282 285 285 285 287 290 293 295 296 296 295 295 294 294 291 289 289 289 289 289 289 291 294 295 296 297 297 298 298 299 298 293 287 286 286 286 287 288 288 288 287 286 286 285 284 282 281
295 295 293 292 291 292 293 291 292 295 295 291 291 290 289 289 285 282 284 286 284 284 286 285 284 285 285 286 288 289 287 286 288 288 288 287 283 279 278 279 279 281 284 284 283 285 288 290 291 293 294 293 292 290 286 287 290 290 289 289 288 287 289 292 294 295 296 297 297 297 298 298 296 293 290 288 287 287 287 287 288 287 287 286 285 284 282 281
295 296 295 292 292 293 293 291 292 293 293 292 292 292 290 289 286 283 283 285 284 284 285 284 284 287 288 287 289 289 287 285 285 286 287 287 283 279 278 278 279 280 283 284 283 284 288 290 289 289 290 288 287 284 281 282 288 290 289 288 288 287 287 289 292 293 294 295 296 296 297 298 298 297 296 291 288 287 287 287 288 288 287 286 285 284 283 282
295 297 295 292 293 293 292 292 293 293 293 293 292 292 291 289 288 287 285 282 282 284 286 286 284 287 289 288 289 289 286 285 286 286 287 286 283 282 281 279 279 281 283 283 282 283 287 289 287 286 287 286 282 281 280 281 284 286 285 286 287 286 287 288 289 290 292 294 295 295 296 297 295 295 296 292 288 288 288 287 287 287 287 286 285 285 284 283
294 295 291 288 293 296 293 294 295 292 292 293 291 291 291 290 289 288 284 282 283 283 286 289 288 286 286 287 289 290 288 288 289 288 286 285 284 284 285 284 281 281 283 283 281 281 285 289 287 284 286 287 282 278 278 280 282 283 283 284 284 285 286 287 287 288 289 291 292 292 293 294 293 292 293 291 289 288 287 287 287 287 287 286 285 285 284 283
293 294 291 288 291 292 290 293 294 292 291 292 292 290 290 290 290 287 284 286 289 286 283 287 289 286 285 287 289 291 288 287 290 290 287 286 285 285 286 287 284 281 282 283 281 281 284 288 287 283 285 287 282 277 277 278 280 281 282 282 282 283 284 284 285 286 287 288 289 289 290 290 290 291 291 290 289 288 287 287 287 286 286 286 285 284 284 283
292 291 291 292 292 289 289 291 292 291 291 291 292 291 289 290 290 287 285 285 288 287 284 286 289 286 285 286 287 288 286 284 286 286 285 286 286 286 286 286 284 282 282 282 282 282 283 285 285 284 286 287 281 277 278 278 279 280 281 281 281 282 283 284 284 285 286 287 287 287 288 288 290 291 291 289 289 289 288 287 286 286 286 285 285 284 284 283
289 288 290 295 295 291 289 290 290 291 291 291 291 290 290 290 289 288 288 284 281 282 281 284 288 287 284 285 286 285 284 282 282 281 282 282 283 283 284 284 283 283 282 282 282 282 282 284 285 285 287 286 280 276 277 279 282 284 284 283 282 282 282 283 284 284 285 286 286 287 288 288 289 291 291 289 289 289 288 287 286 286 285 285 285 284 283 283
Wind_Speed
9 9 10 11 12 12 12 12 12 11 10 9 9 9 8 8 7 7 7 7 7 7 7 8 8 7 2 3 4 5 4 5 8 15 14 11 12 11 8 6 3 3 3 3 7 6 6 6 6 7 4 2 2 2 4 4 1 0 1 1 2 1 1 0 1 3 8 9 9 9 9 13 9 6 8 8 14 13 12 12 10 12 13 11 10 9 10 12
10 11 11 12 12 12 12 12 10 9 9 9 9 8 8 8 8 8 8 7 7 7 7 8 8 5 0 2 3 4 3 3 9 16 13 11 9 9 7 6 4 3 5 9 5 4 6 6 5 5 3 2 2 3 4 2 1 1 1 2 1 1 1 1 3 6 9 11 11 10 9 11 8 5 5 6 8 9 11 10 8 10 10 10 12 12 13 13
10 12 12 13 13 13 12 10 9 9 8 8 8 8 7 7 8 7 7 7 6 6 7 7 6 3 1 1 3 3 6 2 7 12 11 11 9 7 7 6 4 3 7 8 2 4 6 2 4 4 4 2 2 2 4 2 2 1 1 1 1 3 3 4 7 9 11 14 14 10 9 10 6 2 5 9 9 9 8 6 5 7 6 8 11 13 13 13
11 12 13 14 13 13 11 10 9 9 8 8 8 8 7 7 7 5 6 6 6 6 6 5 5 2 1 2 4 3 8 2 5 9 11 11 10 9 7 6 4 5 8 6 3 6 6 3 1 4 3 2 2 2 3 2 2 1 1 1 3 5 4 7 11 13 12 13 13 10 10 10 6 6 5 9 8 7 4 4 5 5 5 7 9 12 12 13
12 13 14 14 12 12 11 10 10 9 8 8 8 8 7 7 6 5 6 5 6 6 6 5 3 1 2 3 4 4 7 2 4 10 11 11 11 10 7 6 4 5 7 5 3 4 4 4 2 2 2 2 3 1 2 3 1 0 0 2 4 5 4 7 10 13 12 12 12 10 9 7 4 8 7 4 5 4 3 4 5 5 5 6 7 10 11 12
12 14 14 13 12 11 11 10 10 9 8 8 8 8 7 7 6 5 5 4 6 5 4 3 1 2 3 5 3 5 5 3 6 11 11 11 11 10 6 5 6 6 7 5 2 3 3 3 2 1 2 3 4 3 3 4 2 1 1 0 4 6 5 7 10 11 11 12 10 8 8 6 7 8 9 10 9 5 5 5 6 6 5 6 6 8 10 11
12 13 13 12 11 10 11 10 10 9 9 8 8 8 7 7 6 5 4 5 4 2 3 2 1 3 5 5 1 4 3 6 8 11 12 11 10 9 6 7 7 7 7 5 1 1 2 1 1 2 3 3 4 4 3 5 1 2 2 3 5 8 7 7 10 11 11 13 10 9 9 7 8 7 7 11 9 6 7 7 6 6 5 6 7 8 9 10
12 12 12 12 11 11 11 10 10 10 9 8 8 7 7 7 6 5 4 3 1 1 3 1 3 4 4 1 3 2 6 6 10 13 13 10 9 7 6 6 5 6 6 3 1 2 1 2 4 3 3 3 2 3 4 4 0 2 2 6 5 7 10 10 11 13 14 12 10 12 11 9 10 10 8 9 7 6 7 7 6 6 6 6 7 9 8 8
11 11 11 11 11 11 11 11 10 10 9 8 7 6 6 6 6 3 1 2 4 3 2 2 4 5 4 2 4 1 5 6 10 12 12 11 9 8 7 4 2 4 4 1 3 2 2 3 3 2 1 3 3 3 4 3 2 2 4 7 6 8 10 10 11 12 12 8 10 14 12 10 11 9 9 6 6 7 6 6 5 5 6 6 6 7 7 7
10 10 10 10 11 11 11 11 10 10 9 8 6 5 5 5 6 5 5 5 4 2 1 4 5 6 3 4 5 0 4 7 9 10 11 12 10 8 7 4 4 5 1 1 3 2 2 2 2 4 4 2 3 4 5 2 0 3 7 7 7 9 8 9 10 10 10 8 10 14 11 9 6 2 4 5 6 7 6 6 4 4 6 6 5 5 6 8
10 9 9 10 10 11 11 11 11 9 7 7 6 4 4 3 3 4 5 5 3 2 4 7 8 5 2 5 2 3 5 8 8 9 10 10 9 8 6 5 6 7 1 3 1 5 8 6 6 4 3 2 1 4 4 1 3 3 7 6 7 8 6 8 10 9 8 7 11 15 12 7 3 3 5 7 7 6 6 6 4 4 5 5 5 5 6 7
10 9 9 10 10 10 10 11 10 6 6 7 6 5 3 2 2 3 4 4 4 5 7 9 9 3 4 4 6 3 5 7 7 9 9 9 8 6 5 4 7 8 4 2 1 7 11 6 7 3 3 3 0 4 3 0 1 2 4 5 7 6 6 9 9 8 7 7 11 13 9 3 4 5 8 9 8 7 6 6 4 4 4 4 4 4 6 7
9 8 9 9 10 10 10 10 7 5 7 7 8 8 6 6 7 5 5 5 6 8 9 8 6 1 3 3 5 4 5 5 7 8 8 9 6 3 4 3 6 9 8 5 5 5 9 5 3 2 3 4 1 1 2 1 2 3 3 3 6 4 6 9 9 8 6 8 13 8 2 2 4 6 8 8 8 7 6 5 4 3 3 3 3 3 5 7
8 8 8 8 9 10 10 9 5 7 8 8 9 10 10 10 10 8 7 7 8 10 8 6 2 3 1 4 3 6 7 5 8 10 9 12 7 3 3 2 4 7 8 7 7 5 5 5 2 2 2 3 1 1 1 1 2 3 3 3 4 3 5 10 10 9 5 7 11 6 2 3 5 6 8 8 8 8 6 5 4 3 3 3 3 3 4 6
8 8 8 8 9 9 9 6 5 7 8 9 9 9 10 10 10 10 9 9 9 9 6 3 2 2 4 5 2 7 9 6 9 12 10 13 10 3 4 3 3 5 7 7 7 4 1 0 1 1 1 2 2 4 2 3 2 3 4 3 4 3 4 10 12 11 7 6 8 6 1 3 5 8 8 7 8 7 6 5 5 4 4 3 3 3 3 4
8 8 7 8 9 8 7 4 5 7 9 10 10 9 10 11 11 11 10 9 8 6 5 3 4 2 3 4 2 6 10 8 8 10 10 11 10 6 4 3 5 5 6 7 6 3 2 2 1 1 1 1 2 4 3 3 2 3 4 3 4 5 4 6 10 11 10 8 6 5 1 3 5 9 9 8 8 6 6 6 5 5 4 3 3 2 2 3
8 6 5 7 7 7 5 5 7 8 9 10 11 11 12 13 12 11 9 7 8 7 7 6 6 4 4 3 2 4 7 8 7 9 10 9 8 7 2 3 6 5 5 6 3 1 1 1 0 1 0 2 3 4 3 3 4 4 4 3 5 7 4 5 8 10 10 9 6 4 1 4 6 11 11 9 9 7 6 6 6 5 4 4 3 2 2 2
7 4 4 6 6 6 5 6 7 8 9 9 9 13 16 16 16 15 11 5 4 5 5 7 7 3 3 3 2 4 4 6 8 10 9 6 6 8 5 2 5 5 6 4 0 1 0 0 1 0 2 3 4 4 4 2 2 4 6 4 4 6 7 7 8 8 10 9 7 5 3 6 9 10 9 8 9 8 6 6 6 5 5 4 4 3 3 3
6 3 3 4 5 5 5 6 7 9 9 9 11 12 12 12 12 15 18 12 4 2 2 5 4 2 4 4 3 4 3 4 7 9 9 6 6 7 4 1 3 4 4 3 0 1 1 1 1 0 3 4 5 6 3 1 4 2 5 6 6 5 4 4 4 8 11 8 7 7 5 8 10 9 9 8 8 8 7 6 5 5 5 5 4 4 3 3
5 2 3 4 5 5 5 5 7 9 9 7 6 4 3 3 3 6 13 13 7 5 4 5 4 5 5 4 4 5 3 2 5 8 10 10 9 6 2 1 1 2 2 2 2 0 1 1 2 3 2 3 6 8 3 3 5 5 3 3 7 5 1 2 3 6 9 6 4 4 6 8 9 9 9 8 8 8 8 8 6 6 6 5 5 5 4 4
3 2 3 4 5 7 7 6 8 8 7 4 1 3 1 1 1 2 4 7 8 8 7 6 7 7 4 2 4 6 2 2 7 8 11 10 6 3 0 2 2 2 2 2 3 2 2 1 2 1 3 3 2 4 2 4 4 4 4 4 4 2 2 2 2 3 4 2 2 5 6 6 8 8 9 9 9 9 9 9 8 7 6 5 6 7 6 5
2 1 4 5 6 8 8 7 7 4 3 1 3 2 2 1 3 6 4 5 7 7 6 6 7 7 4 3 5 7 2 2 6 7 13 12 3 1 1 2 3 2 1 1 3 2 1 2 2 4 5 4 4 4 4 4 4 4 4 4 5 1 4 2 2 0 1 0 3 6 5 5 8 8 8 10 9 7 7 8 8 8 7 5 6 7 6 6
2 1 4 6 7 8 9 7 3 2 2 1 0 3 3 4 7 6 2 4 5 5 5 4 5 5 3 4 7 9 1 2 4 5 13 12 3 2 2 2 2 2 1 2 2 1 2 1 4 5 5 3 3 3 4 4 2 2 3 3 4 1 3 0 1 1 1 2 2 5 4 4 6 5 5 8 7 5 4 4 4 6 7 7 6 6 6 7
1 2 4 7 8 8 8 4 5 5 3 3 6 7 6 6 5 1 1 3 4 3 3 2 3 4 2 2 6 6 3 3 3 4 11 10 3 4 3 2 2 1 1 3 4 3 1 2 5 4 3 3 3 3 3 3 3 4 4 4 4 0 3 2 3 1 3 3 1 4 2 4 7 7 7 7 7 5 4 4 3 4 6 7 7 7 7 7
1 2 5 8 8 8 7 2 4 4 5 5 8 8 6 4 2 3 2 2 3 2 1 1 1 3 3 3 6 4 2 3 3 4 7 6 3 3 1 2 2 1 1 2 2 3 1 2 3 2 2 2 3 3 2 3 3 4 4 4 3 4 6 5 6 3 2 3 4 7 3 4 6 10 8 6 6 6 5 6 6 5 6 7 8 8 8 7
1 2 4 8 8 8 6 0 1 3 4 3 6 6 4 2 3 4 2 2 2 1 1 1 1 2 2 3 5 3 1 1 2 3 4 5 3 1 1 1 1 1 2 2 1 1 1 1 2 2 1 1 2 4 3 3 3 3 2 5 3 6 8 5 5 3 2 3 4 8 5 4 2 6 6 6 6 6 6 7 8 7 8 7 7 7 7 7
1 2 5 7 8 8 3 1 3 2 2 3 5 3 2 3 2 3 1 2 1 0 0 1 1 2 2 2 3 1 0 0 0 2 4 5 3 1 0 2 2 1 1 1 1 1 1 2 3 2 1 1 3 3 4 2 3 2 3 7 5 3 5 5 4 3 3 1 1 6 5 4 4 3 4 8 6 6 8 9 10 10 10 9 8 8 8 8
1 2 5 7 9 9 2 2 3 1 1 5 6 2 2 4 2 1 1 2 1 1 1 2 1 2 1 1 3 1 2 1 0 2 2 4 3 1 0 3 3 2 3 1 1 0 2 2 3 2 1 2 1 1 5 5 1 2 4 5 5 4 1 2 2 3 3 3 3 6 4 4 5 1 4 6 5 7 11 13 14 14 12 11 10 9 9 8
2 3 5 7 10 10 3 3 3 2 1 8 8 3 4 4 2 1 1 3 0 1 1 1 0 2 1 1 3 4 2 0 1 2 3 2 2 0 0 2 3 3 3 2 2 0 1 1 1 2 1 1 1 2 4 5 1 1 4 3 2 4 3 1 1 2 3 4 7 7 6 4 5 2 4 3 4 8 12 13 14 12 12 11 11 10 10 9
2 3 5 7 6 7 5 4 5 4 2 8 8 3 5 4 1 0 2 3 1 1 1 1 1 2 1 2 2 3 2 2 2 2 2 0 1 0 0 0 1 2 1 2 3 1 0 1 2 1 1 0 1 2 1 2 2 2 3 1 1 2 1 2 1 1 1 6 9 6 9 5 4 3 6 4 5 8 9 8 9 11 12 12 11 10 11 10
3 3 6 7 5 5 3 1 5 5 4 8 6 3 4 2 1 1 2 1 1 0 1 1 0 2 1 1 2 2 2 3 3 2 1 1 1 1 1 0 1 1 1 2 2 1 1 2 2 2 0 1 1 2 2 1 2 2 1 2 0 1 1 1 2 1 3 7 5 2 6 7 6 5 5 5 2 5 7 8 11 14 14 13 11 11 11 10
3 4 6 6 5 6 4 1 4 6 6 7 3 2 2 1 1 1 1 1 1 0 1 1 2 2 2 2 2 1 0 1 2 2 1 0 1 2 0 0 1 1 2 3 2 1 1 2 2 2 1 2 1 2 1 1 1 1 1 3 2 1 1 1 3 3 5 6 1 1 2 5 8 6 4 6 3 3 1 5 12 14 14 13 11 11 10 10
3 3 4 5 5 7 4 2 4 7 7 5 0 2 1 1 2 1 1 0 1 0 2 2 1 3 2 1 1 0 0 1 1 1 0 0 1 1 1 2 2 2 1 1 1 1 1 1 1 1 1 1 1 2 1 0 2 3 3 3 3 3 3 4 5 3 5 4 1 2 0 1 6 4 4 5 4 5 6 1 9 13 13 13 11 11 9 10
3 3 3 3 3 5 5 4 6 8 7 3 1 1 1 1 2 1 2 1 0 1 2 2 1 2 3 1 0 1 0 0 1 0 1 1 2 2 1 3 3 1 0 2 1 3 3 2 1 2 1 1 1 1 1 1 2 4 4 2 2 3 3 4 3 2 3 1 1 3 1 1 4 1 3 4 5 4 6 4 8 9 10 11 10 10 10 10
5 4 3 3 2 3 5 6 9 9 6 1 1 2 1 2 2 1 2 2 1 2 2 2 1 1 1 1 0 2 1 1 1 1 2 2 2 2 1 2 1 1 1 1 1 2 3 2 0 1 1 1 2 1 1 0 2 4 3 2 3 1 1 1 1 1 1 1 1 3 3 2 2 0 2 3 4 4 4 6 9 8 9 10 9 10 10 9
6 5 4 2 1 3 5 8 10 9 4 0 1 3 2 1 0 1 1 3 3 5 4 0 1 2 2 2 1 2 0 1 1 1 2 3 2 1 2 2 1 1 2 2 1 1 1 1 2 1 1 2 2 1 1 1 1 1 2 2 3 1 2 0 2 1 2 2 3 4 4 3 0 1 1 4 3 2 2 5 8 8 9 10 8 9 9 9
3 2 2 1 1 3 6 9 10 7 1 1 2 3 1 1 1 2 1 1 1 4 5 2 2 2 3 2 2 1 1 1 2 1 1 2 1 1 3 2 3 2 2 1 1 2 1 1 2 1 0 0 0 1 2 2 0 0 1 1 3 2 2 1 2 1 1 5 4 4 6 4 2 2 1 3 5 6 6 6 8 9 9 9 8 8 9 9
2 2 2 2 2 4 8 9 9 4 0 1 3 4 1 1 1 2 2 1 1 2 3 2 1 1 2 2 2 3 2 1 3 2 1 3 2 1 3 2 2 2 1 1 1 1 1 1 2 2 1 0 1 1 3 2 2 2 2 2 1 1 1 2 3 3 4 6 5 6 8 6 5 4 2 7 10 10 9 8 8 10 10 9 8 9 10 10
2 2 1 3 3 6 10 9 6 2 1 3 4 3 1 1 1 2 3 2 0 1 3 2 1 1 1 2 2 3 2 1 4 3 2 2 2 3 2 1 1 1 1 0 0 0 1 1 1 3 2 1 1 1 2 1 1 2 2 2 1 1 2 3 1 1 3 5 5 7 7 5 5 3 2 9 13 11 11 10 10 10 10 9 8 9 10 10
3 1 1 4 6 9 11 8 3 2 3 2 2 2 1 1 1 2 3 3 1 1 1 0 2 2 1 1 1 2 2 1 2 2 1 1 0 2 2 2 1 2 2 1 1 1 1 2 1 2 3 2 0 2 2 1 1 1 1 3 2 1 1 1 1 1 1 3 4 6 7 5 3 1 2 5 8 11 11 11 10 9 9 9 8 9 10 10
2 1 1 5 9 12 11 5 2 2 3 1 1 1 1 1 2 2 2 3 2 1 1 2 1 1 2 2 1 3 3 2 2 1 2 2 1 1 1 3 2 1 1 1 1 1 1 2 2 1 1 2 2 0 1 2 1 1 2 3 3 3 2 2 4 3 2 2 3 4 8 6 2 0 3 4 1 7 10 10 8 9 10 9 9 10 10 10
2 1 1 6 12 13 8 3 2 1 1 2 1 2 0 1 2 2 1 2 1 1 1 1 1 2 1 2 1 4 4 3 3 2 2 2 1 1 0 2 3 2 0 1 1 1 1 1 1 2 1 1 2 2 2 2 0 1 1 1 1 1 3 4 5 2 1 2 2 3 7 6 1 1 3 4 4 1 7 9 7 8 9 9 9 10 10 10
2 2 2 5 12 10 4 3 3 1 1 1 1 1 1 0 2 1 1 1 1 0 1 0 1 2 0 1 2 4 4 3 4 4 2 1 2 1 1 2 3 2 1 1 1 1 1 0 2 3 1 1 2 2 1 2 1 2 3 3 1 1 2 2 3 1 1 2 2 2 7 6 1 2 3 4 6 4 4 8 8 8 8 8 9 10 10 9
2 3 2 4 10 7 2 3 4 4 3 1 1 2 2 1 2 1 2 3 1 1 1 1 1 2 0 1 2 2 2 1 3 2 1 1 1 1 2 3 2 2 1 0 0 1 1 2 2 1 2 2 1 1 2 2 1 2 3 1 2 4 2 3 1 1 1 7 8 5 7 7 1 2 2 2 5 5 1 5 7 7 7 8 8 8 9 9
3 2 2 3 7 4 1 1 2 3 5 4 2 4 3 1 2 1 0 2 2 1 1 1 1 2 3 3 2 1 1 1 0 0 1 1 1 1 2 4 3 2 2 2 2 1 0 1 2 3 4 4 4 3 2 1 1 2 2 0 1 5 5 1 1 1 5 10 9 6 9 8 3 2 2 1 2 4 2 3 6 6 7 8 8 8 9 9
3 1 2 2 2 3 1 1 1 1 4 5 2 3 5 4 2 0 0 2 2 2 2 2 2 3 3 3 2 0 1 2 2 1 1 2 2 1 2 3 3 2 2 4 5 2 0 1 2 5 6 5 4 3 2 1 1 2 2 3 3 3 5 2 1 4 7 6 6 10 13 12 8 4 4 5 5 5 4 4 6 6 7 8 7 8 8 8
2 2 5 4 0 3 3 2 3 1 3 6 4 4 7 5 3 2 1 0 1 2 2 1 2 3 4 5 4 2 1 2 2 0 1 1 2 1 2 2 3 3 1 3 4 2 1 2 2 4 5 3 3 3 2 0 3 3 2 3 5 5 6 6 7 11 7 3 9 12 9 11 16 10 8 9 8 7 7 7 7 6 6 7 7 8 9 9
2 1 4 2 1 5 5 6 8 5 4 6 3 4 7 7 5 4 2 1 1 1 2 1 3 7 8 7 6 3 2 1 1 3 1 2 2 1 1 1 1 3 3 1 3 2 1 3 2 1 3 1 2 2 2 1 4 4 3 5 5 6 9 11 13 13 7 6 14 10 3 9 14 6 5 9 10 9 10 8 7 6 6 7 8 9 10 10
2 1 1 1 0 4 3 4 10 9 7 6 3 3 8 9 8 5 2 4 1 3 3 4 7 9 9 7 5 5 5 3 3 5 4 3 3 3 1 0 2 4 3 2 0 0 1 2 1 1 3 4 2 3 3 3 4 5 7 9 8 8 10 11 13 13 10 13 19 14 9 15 14 3 2 5 7 7 6 6 7 7 8 8 9 10 11 11
3 2 3 1 1 1 2 2 9 8 6 6 4 4 6 9 10 5 3 5 5 4 5 7 7 8 9 9 6 5 6 5 3 5 7 5 3 3 3 2 3 4 3 3 1 1 0 1 2 2 2 4 2 1 3 5 5 7 9 9 9 9 10 10 12 11 10 15 19 15 14 19 14 6 5 5 6 6 6 7 9 9 9 9 10 11 11 12
4 4 7 4 2 4 2 2 6 6 6 7 7 5 6 10 11 7 2 1 3 5 9 10 8 7 5 8 9 6 3 4 4 3 5 5 3 3 3 2 5 6 4 3 2 1 1 1 1 3 0 4 2 2 4 4 4 8 12 13 13 12 10 11 12 11 12 15 15 11 13 16 9 4 7 7 8 9 10 10 9 8 9 10 11 12 12 12
6 4 5 4 2 5 5 3 5 5 5 6 8 6 4 7 9 10 5 1 3 2 3 6 9 7 4 7 11 5 5 7 5 4 4 4 4 4 4 3 5 6 6 5 3 2 3 2 1 3 2 4 3 3 3 3 5 7 9 11 14 16 14 12 11 13 15 14 11 10 13 11 3 5 8 8 8 10 9 9 9 9 10 11 11 12 12 12
Wind_Direction
358 359 357 355 356 354 355 354 352 351 349 347 347 346 343 340 340 340 344 349 347 341 338 337 326 317 332 80 92 125 84 32 49 55 46 10 353 3 11 10 23 114 93 335 294 262 204 192 186 160 131 192 222 160 211 244 78 102 192 156 263 269 215 5 86 143 123 124 129 123 109 110 115 112 123 84 64 80 80 71 72 71 67 60 49 24 9 5
359 359 356 353 354 353 351 351 352 351 350 349 346 344 340 336 337 339 344 349 343 342 338 330 323 312 110 104 130 126 39 19 69 57 31 0 0 5 19 31 51 102 9 336 286 224 202 187 168 162 153 186 257 195 192 244 127 198 226 174 251 3 36 28 91 113 116 121 110 97 104 105 112 137 122 88 76 80 79 74 71 67 55 41 29 15 13 11
359 358 354 352 353 352 351 351 352 352 353 352 350 345 340 338 336 332 339 348 341 337 333 328 334 325 139 126 161 104 348 315 84 45 11 2 4 4 21 27 52 69 347 332 310 278 263 224 140 184 198 182 269 209 176 235 242 234 272 209 168 99 72 65 89 102 114 117 105 96 95 79 58 63 102 110 92 62 69 71 57 56 27 13 14 8 7 8
358 355 352 352 353 357 358 357 353 354 355 352 352 347 342 343 337 326 333 344 339 329 327 336 351 329 192 181 159 62 336 253 88 16 355 360 2 5 13 16 43 43 355 333 300 298 287 314 151 204 219 184 207 223 168 182 246 240 316 298 129 113 70 70 92 103 109 109 106 108 95 79 43 29 84 128 101 64 67 54 46 53 20 5 4 3 3 8
356 352 351 350 353 359 358 358 354 352 353 349 350 346 338 340 335 324 327 338 331 314 309 321 321 257 201 178 140 19 320 210 53 358 351 354 1 7 8 15 26 38 15 329 282 335 324 312 293 245 271 202 157 184 168 133 341 340 323 317 125 115 82 86 102 108 109 107 103 100 86 87 77 38 32 73 95 94 82 64 61 54 30 17 4 2 5 12
356 351 351 350 353 355 354 355 351 350 350 347 347 343 338 332 328 322 318 327 325 308 301 310 243 182 171 164 135 338 314 110 21 353 352 351 3 5 8 28 21 22 359 311 295 10 321 303 314 272 247 229 171 178 154 118 20 347 164 330 103 102 103 107 104 106 109 104 96 94 91 97 99 68 37 52 78 94 82 79 73 58 41 31 19 14 14 15
356 352 351 352 354 353 353 353 351 351 347 345 342 339 339 327 317 308 304 316 317 321 330 329 149 159 162 167 231 338 50 68 9 353 350 348 360 3 18 28 13 1 335 315 16 296 266 242 248 242 232 234 194 179 113 108 14 310 150 105 92 94 93 87 88 90 91 91 93 101 98 91 100 96 65 68 81 93 86 81 75 69 52 42 34 27 21 16
355 353 353 354 354 352 354 353 353 352 347 349 345 344 347 340 326 297 287 297 238 75 339 324 144 160 151 176 293 57 73 29 351 351 347 349 358 5 22 14 1 345 322 292 256 240 228 207 221 242 230 242 213 165 110 107 214 285 123 102 98 103 91 82 88 93 92 94 94 88 80 74 92 95 79 83 96 101 97 89 82 76 57 48 41 30 17 13
356 356 354 355 353 352 355 354 353 351 351 352 351 359 6 7 2 338 238 188 145 77 358 143 150 167 145 355 308 63 65 1 348 350 348 357 359 3 7 1 18 330 321 299 266 221 183 221 221 346 318 286 333 110 127 132 207 223 137 118 121 117 103 98 101 102 103 108 97 86 84 100 111 95 74 92 113 111 112 101 88 77 62 52 43 31 13 15
0 358 357 356 353 354 355 354 353 350 353 360 7 13 15 29 32 49 105 137 129 57 43 141 148 158 173 298 297 93 49 4 353 349 352 359 355 358 1 17 17 317 306 153 282 249 258 303 43 11 16 334 344 78 114 130 5 143 138 130 128 122 119 118 112 113 112 113 110 104 110 128 142 107 86 128 134 125 121 103 94 82 68 55 49 38 21 23
360 359 360 357 356 357 356 355 351 349 1 10 14 11 4 22 39 62 102 129 129 103 122 137 147 149 266 312 19 78 26 0 350 351 353 359 360 0 359 15 352 321 173 195 302 12 332 359 43 9 8 334 332 71 90 65 6 129 144 124 126 132 134 127 121 130 121 109 116 112 116 117 52 46 115 143 144 136 123 105 101 85 72 65 57 45 34 29
356 358 360 359 359 357 357 356 351 3 32 22 18 22 12 31 72 88 100 115 126 128 129 143 148 151 305 28 56 22 5 1 354 356 355 356 358 3 357 4 352 349 4 286 83 27 341 17 63 31 1 321 172 88 72 172 316 184 167 134 146 166 162 146 141 152 136 127 138 123 117 100 43 85 122 137 143 138 125 111 104 87 80 74 59 51 44 34
355 359 359 0 2 359 358 356 4 55 58 46 48 52 62 77 84 90 92 106 123 126 135 151 147 308 307 61 34 359 21 13 2 1 1 359 354 21 14 3 2 8 10 360 96 62 350 29 70 25 21 342 97 118 327 250 203 188 204 182 161 184 191 167 157 165 145 142 161 157 159 143 97 124 135 139 149 145 132 118 113 99 88 78 61 62 53 40
356 360 358 2 5 3 2 4 51 83 67 65 68 66 73 80 83 92 104 117 126 129 138 144 116 331 24 82 36 46 50 33 22 13 7 7 8 97 62 25 11 21 35 41 91 92 358 23 10 14 47 346 92 159 272 184 206 181 195 229 186 195 205 173 163 174 159 149 175 198 265 172 138 147 150 152 159 153 138 126 127 122 107 100 79 75 67 54
359 1 356 3 7 7 12 25 73 86 78 73 74 76 79 83 87 98 111 117 119 120 117 87 1 325 92 87 53 47 39 33 25 11 7 2 0 83 90 57 50 40 51 59 80 90 316 343 9 79 67 329 123 134 149 155 217 201 186 227 215 230 218 171 165 180 170 155 186 210 253 144 156 167 162 164 175 166 144 136 136 128 121 118 97 84 86 75
1 356 355 5 8 9 21 60 88 89 88 78 79 84 84 90 91 93 99 106 108 89 61 32 333 318 103 87 67 40 29 26 11 2 9 2 2 42 67 80 82 59 59 71 81 98 230 253 294 332 52 239 173 154 153 155 203 222 199 204 201 220 231 166 167 184 167 146 182 214 187 107 156 172 167 172 189 182 150 147 147 138 137 125 107 94 96 88
355 353 10 20 27 30 40 88 102 100 97 85 85 87 87 86 78 73 74 90 101 82 58 27 16 60 81 48 45 36 20 15 11 9 10 8 11 18 359 145 101 88 90 86 95 153 284 319 214 299 211 213 222 188 165 172 199 208 206 228 208 202 206 157 174 183 151 137 167 203 146 98 139 161 169 180 192 189 164 158 157 148 146 134 124 121 101 78
356 12 47 46 60 69 81 105 111 113 107 99 102 99 92 82 70 58 45 49 105 111 86 22 14 85 77 29 40 37 12 5 22 20 4 13 25 2 342 130 125 135 130 106 183 199 26 37 152 214 199 218 239 212 193 191 212 198 195 220 231 207 191 177 183 165 140 144 165 171 133 117 136 157 174 185 191 193 180 162 158 155 152 148 144 133 109 81
3 36 67 67 81 94 109 116 118 119 111 107 114 110 99 89 78 57 42 40 51 120 92 15 1 115 78 63 48 22 357 351 20 22 10 11 11 357 355 70 155 170 158 133 148 244 182 137 92 241 205 208 226 232 233 13 359 295 206 206 223 223 191 168 159 143 146 157 174 177 160 143 153 167 171 176 188 191 178 157 155 162 158 154 153 141 129 111
7 49 87 86 92 107 118 123 121 116 106 99 106 105 104 116 114 53 38 43 53 68 65 31 48 90 81 61 11 349 328 353 36 30 12 356 338 335 335 214 201 230 222 150 126 328 8 153 203 221 223 211 222 236 259 10 1 342 318 243 225 218 83 50 93 142 161 170 182 163 142 154 168 173 172 173 186 190 176 166 171 176 170 166 161 153 143 127
10 66 113 102 101 114 120 124 124 116 100 94 277 294 316 321 126 127 69 59 62 66 76 71 76 82 70 43 2 349 327 73 60 33 7 354 325 310 350 195 213 221 233 86 87 59 18 264 225 272 337 350 278 258 330 13 360 346 336 318 285 244 91 46 76 149 194 195 159 124 130 170 177 175 178 176 186 196 184 178 180 176 171 171 167 160 150 136
20 91 130 123 122 126 125 126 129 125 92 71 284 329 45 26 118 132 126 90 70 52 79 102 95 86 70 68 13 349 295 93 49 28 3 358 328 296 67 198 222 181 144 104 82 68 172 232 2 2 335 341 355 3 20 1 352 341 323 322 317 352 102 53 31 60 282 46 147 156 165 191 180 176 180 179 191 198 189 186 179 169 168 175 173 164 154 150
29 108 146 142 140 141 136 122 85 14 347 310 7 67 89 114 123 130 117 102 87 41 54 72 71 71 63 66 17 355 14 42 23 22 360 355 332 339 5 237 240 98 84 185 188 189 184 221 353 339 322 323 322 344 2 344 335 302 296 297 289 222 129 24 284 233 325 42 130 172 197 204 167 169 191 195 198 179 160 167 161 165 172 178 176 167 162 164
39 120 160 157 155 157 145 98 21 23 51 95 106 106 120 123 117 107 341 108 103 60 58 43 54 60 43 32 358 356 70 53 10 357 354 355 341 331 335 317 338 118 188 210 229 273 99 37 337 315 331 331 300 312 326 317 290 241 226 250 273 86 71 80 125 100 24 7 143 147 237 243 173 184 209 197 192 178 153 152 157 172 175 172 169 171 173 172
67 140 171 170 168 169 158 72 18 75 76 84 108 113 114 105 47 342 332 135 101 91 132 188 107 52 16 341 348 357 116 74 26 344 350 7 356 328 348 344 342 219 194 168 234 289 60 42 329 322 353 329 289 283 243 219 270 257 216 252 252 118 87 96 131 131 45 286 211 160 239 275 175 194 205 169 179 193 177 183 195 188 182 175 171 176 176 170
146 152 177 178 177 176 175 214 81 109 66 82 121 118 99 54 16 12 342 208 112 106 197 156 120 35 17 360 357 353 159 74 22 339 353 14 347 296 3 348 60 53 15 49 30 322 72 33 350 351 2 333 266 261 244 205 235 268 300 318 312 120 114 133 161 185 200 252 204 172 214 284 197 210 194 151 181 200 186 199 207 197 195 190 181 179 172 168
175 171 180 180 181 177 179 332 166 141 39 156 157 127 79 25 39 46 350 229 181 263 234 95 82 41 52 356 328 309 77 111 334 23 13 5 351 228 284 37 86 51 348 24 32 20 18 16 21 358 296 217 230 259 304 286 213 242 330 344 345 95 132 172 193 230 248 310 193 185 211 269 262 235 155 146 174 207 206 209 210 203 199 193 189 182 171 171
183 180 177 181 185 177 136 7 188 202 18 177 183 182 9 5 22 42 318 245 254 294 18 75 54 47 83 317 339 83 119 222 305 32 339 337 5 215 190 49 67 50 20 26 195 290 3 25 27 353 261 225 225 306 326 329 134 207 319 352 1 10 36 204 209 247 274 307 262 212 196 255 258 224 106 146 183 222 219 214 212 203 194 190 187 179 172 170
188 184 177 183 190 190 208 323 263 258 163 179 188 222 330 346 347 11 290 264 257 58 23 65 78 19 68 205 40 64 100 40 28 343 294 306 30 26 295 57 84 73 33 43 97 51 359 47 356 315 283 257 356 345 331 347 67 225 309 336 22 9 4 13 242 255 278 265 254 220 174 226 264 191 143 175 218 231 223 218 212 196 187 187 181 173 170 166
182 174 172 170 180 203 232 290 264 247 183 183 192 257 320 324 296 318 264 255 105 88 332 69 177 322 319 192 62 39 58 62 16 306 303 55 84 46 168 304 45 85 66 68 87 126 224 260 238 252 352 247 333 313 295 357 330 308 319 311 35 4 31 30 303 288 294 251 251 221 179 197 270 209 169 190 217 211 211 210 198 187 185 183 176 170 167 164
174 160 167 165 169 202 214 244 228 222 195 190 196 298 315 296 257 264 244 236 88 145 290 45 338 308 322 153 87 47 82 64 355 333 42 101 109 88 112 324 13 102 208 203 149 139 175 219 193 114 85 225 303 285 205 252 320 349 295 221 222 337 66 39 255 189 231 244 251 242 190 188 233 245 182 184 189 173 186 188 184 186 182 176 172 167 164 164
175 172 171 177 190 190 193 230 204 197 194 189 193 320 299 246 236 210 220 250 71 162 126 60 351 350 19 54 70 34 69 55 355 7 43 280 162 151 133 141 144 150 229 211 160 122 198 185 112 93 191 208 216 225 197 257 237 123 245 213 187 217 148 217 217 189 229 242 231 323 237 194 236 265 165 154 101 67 212 194 181 178 173 171 169 164 161 161
167 180 179 196 206 195 212 253 191 185 184 171 208 296 260 272 255 143 121 295 310 323 70 70 31 26 20 45 86 17 24 41 346 18 334 259 166 168 53 104 139 159 223 232 125 169 225 7 58 136 159 123 195 199 160 197 188 183 197 190 185 200 221 230 222 210 231 244 209 222 255 202 260 302 82 114 77 27 346 308 164 164 164 165 160 156 158 159
133 155 164 175 194 205 219 212 178 172 160 131 316 272 82 229 228 125 133 143 300 207 74 64 132 50 24 47 67 287 201 334 328 347 225 188 166 212 176 127 137 153 260 338 282 220 241 285 223 164 142 21 73 112 122 182 223 215 207 215 226 225 244 237 228 246 243 309 327 219 183 191 231 304 66 77 62 29 359 44 119 135 145 147 146 152 158 163
113 113 116 113 118 194 195 180 172 162 151 130 279 219 188 208 186 115 155 145 143 160 84 359 194 137 37 107 61 303 119 121 325 320 219 198 177 210 185 131 153 186 163 229 269 232 229 247 117 148 269 351 50 55 49 338 263 235 202 225 266 259 308 253 203 201 172 16 309 219 241 249 220 55 83 86 65 46 38 78 109 123 133 139 148 159 163 167
101 99 98 94 99 165 173 174 167 156 146 301 248 222 237 229 94 25 123 144 152 148 135 185 184 184 217 153 87 311 71 121 304 281 204 200 213 202 93 70 16 92 128 188 286 35 222 269 359 277 242 43 46 32 359 316 300 266 179 203 275 291 79 7 262 148 118 263 243 199 243 268 292 278 171 125 112 114 121 126 130 136 140 148 160 165 167 169
101 111 109 118 207 168 167 168 160 152 143 260 232 241 189 88 355 353 60 114 126 134 142 186 190 177 205 175 152 187 164 201 216 209 192 185 234 176 121 77 352 39 86 123 122 97 134 254 298 288 344 7 235 304 278 242 140 21 212 344 324 309 72 96 269 292 215 257 247 211 241 247 213 257 176 151 181 185 185 169 149 151 156 162 169 166 166 168
131 154 139 181 202 171 163 160 154 149 163 219 248 253 147 101 337 15 50 56 73 148 177 214 185 139 198 196 154 136 136 172 163 173 217 190 236 339 118 127 2 26 55 35 88 108 110 210 280 299 337 201 221 277 267 232 155 195 258 335 8 269 281 189 216 254 248 255 259 248 253 252 241 248 182 196 206 193 185 178 167 169 170 171 172 166 166 167
160 181 181 178 176 167 160 157 153 166 212 209 238 239 149 83 53 40 15 340 327 181 207 209 141 106 203 162 124 130 150 147 149 177 236 198 244 343 57 115 33 81 224 356 53 349 95 144 256 285 296 345 31 209 206 186 210 220 290 312 140 143 264 219 206 305 253 254 265 261 259 251 247 256 210 211 205 187 178 181 183 180 176 177 174 167 170 172
186 218 193 164 161 161 153 146 150 202 209 211 226 216 182 93 129 72 28 8 356 171 231 317 126 145 156 123 123 149 140 151 186 209 254 148 111 13 26 13 68 150 210 227 260 327 86 157 199 301 310 310 203 191 183 148 173 175 210 236 209 184 257 268 269 241 232 260 263 266 268 255 234 280 301 247 201 179 178 180 184 182 175 177 172 168 172 172
180 219 193 161 155 152 145 136 165 201 210 210 99 119 203 209 131 107 62 35 22 88 73 15 32 129 139 144 196 161 143 194 229 249 246 197 114 32 5 350 356 98 172 181 221 276 209 162 197 209 243 235 192 157 29 62 94 131 199 218 218 212 217 275 257 219 186 252 248 259 272 266 225 163 324 325 165 166 172 172 177 177 173 176 172 169 172 171
173 201 176 160 160 156 148 149 149 134 225 233 98 91 128 213 130 125 125 67 40 104 93 43 9 31 112 130 138 149 149 182 196 209 246 214 80 43 11 333 328 324 282 126 71 254 224 54 264 237 204 150 133 107 53 21 330 224 227 240 26 242 221 231 250 246 169 243 262 269 269 268 263 359 341 349 352 129 161 164 168 168 169 173 169 166 170 171
182 158 100 159 168 164 159 170 156 156 228 281 300 79 49 260 131 110 181 153 130 67 74 104 48 44 31 30 79 159 169 182 182 182 211 161 83 25 350 357 330 321 321 93 78 11 296 174 228 253 273 72 99 121 60 9 349 228 224 211 168 211 216 195 230 269 46 235 234 240 255 256 262 349 350 355 335 334 146 153 156 158 164 171 170 166 167 168
152 118 64 170 179 177 185 181 179 193 184 102 98 120 69 45 108 107 194 173 148 126 134 152 62 68 100 28 44 168 180 186 196 186 159 139 153 267 347 2 347 358 26 117 84 10 296 177 173 243 274 285 317 308 310 353 343 240 237 197 185 201 127 69 241 251 260 239 233 233 253 256 277 344 334 6 338 328 69 137 147 156 166 170 171 168 166 166
119 102 57 160 186 199 226 186 183 185 156 128 142 156 149 132 98 53 144 120 78 51 111 132 109 91 91 84 55 348 337 80 252 104 91 93 110 107 357 343 335 25 56 14 353 8 296 200 163 182 219 241 258 261 248 241 247 250 244 196 205 199 182 164 316 243 238 242 236 234 249 260 308 333 262 229 269 279 269 158 155 164 170 171 172 170 167 167
136 189 117 128 212 239 243 102 98 174 149 142 150 171 172 169 140 128 55 107 124 118 104 123 132 106 95 115 121 266 291 67 64 108 170 137 120 99 332 334 336 343 45 22 8 20 21 300 239 221 230 231 217 199 177 170 211 228 216 200 199 193 192 201 237 226 240 264 260 241 242 258 275 254 223 226 213 223 240 201 178 182 177 172 171 170 168 170
181 211 163 144 190 230 235 206 184 209 158 164 176 167 171 168 130 149 222 117 120 113 97 94 147 165 169 156 150 188 209 66 59 153 208 133 100 39 319 348 345 300 250 21 1 26 134 275 274 251 252 225 155 155 116 100 230 232 245 219 203 186 179 190 216 232 242 292 267 248 228 247 260 244 209 216 203 197 218 210 194 190 179 172 169 166 171 176
196 191 157 145 153 188 209 206 189 182 162 171 170 135 159 169 162 178 189 86 43 215 153 165 223 208 189 166 156 161 150 92 250 225 189 130 134 120 334 345 294 230 171 69 353 56 138 260 277 281 286 288 140 153 134 159 236 242 255 251 227 196 188 200 223 237 233 236 254 257 181 230 256 257 197 212 199 194 208 199 183 180 171 169 170 173 180 184
161 98 118 15 356 175 188 172 168 173 179 179 177 156 169 182 188 188 121 108 221 250 194 205 222 205 193 183 163 158 166 177 224 217 180 145 161 171 157 163 219 207 177 127 344 107 159 231 176 121 295 291 219 184 174 193 249 258 242 239 237 227 217 216 229 236 232 242 255 264 268 260 259 241 161 202 190 191 194 170 170 185 184 179 179 185 190 189
174 158 146 89 61 122 20 116 153 168 185 184 197 190 175 186 189 177 132 154 179 190 190 212 210 182 182 194 190 194 199 179 178 200 176 147 162 201 197 168 145 172 196 164 148 296 211 148 117 108 304 293 275 238 220 213 237 261 257 245 234 239 244 241 241 236 227 243 254 259 268 270 262 224 189 179 163 165 171 176 187 194 192 188 188 194 196 193
184 139 146 146 156 152 133 133 149 165 188 193 197 177 175 201 191 163 151 191 146 164 187 193 176 140 147 196 210 224 198 127 114 164 161 146 159 184 185 156 134 147 180 175 144 146 164 165 72 88 276 275 299 315 273 252 262 269 269 256 230 222 230 230 229 222 213 229 247 249 251 260 259 197 184 181 171 177 184 188 194 197 196 197 198 200 199 197
171 131 152 156 162 165 160 147 157 177 194 192 187 169 172 200 174 150 163 263 49 93 194 173 149 124 121 201 212 200 115 107 99 92 111 111 91 87 85 88 118 138 161 165 143 150 169 176 152 129 185 273 298 308 308 344 319 272 257 244 222 214 223 231 234 229 218 219 231 234 239 253 254 157 185 193 188 193 195 190 194 200 200 201 205 206 204 202